Location: *
(48.8489°N, 2.3218°E)
Time: 04:16:29
(UTC+00:00)

Cosmos 1378 Rocket - Pass Details

Date: 23 August 2019
Orbit: 602 x 626 km, 82.5° (Epoch: 21 September)

Event Time Altitude Azimuth Distance (km) Brightness Sun altitude
Rises 20:15:20 0° 351° (N) 2,904 7.7 -13.1°
Reaches altitude 10° 20:17:34 10° 352° (N) 1,997 6.8 -13.4°
Maximum altitude 20:22:00 80° 80° (E) 638 3.5 -14.0°
Enters shadow 20:25:31 16° 167° (SSE) 1,632 5.3 -14.5°
